Track EUTE HOT BIRD 13B (HB 8) now! EUTE HOT BIRD 13B (HB 8) is classified as:
1 29270U 06032A 25175.29257894 .00000157 00000-0 00000-0 0 9990 2 29270 0.7361 86.1620 0003649 7.2290 317.7443 1.00274671 43716